TimeMST,TemperatureF,Dew PointF,Humidity,Sea Level PressureIn,VisibilityMPH,Wind Direction,Wind SpeedMPH,Gust SpeedMPH,PrecipitationIn,Events,Conditions,WindDirDegrees,DateUTC
12:53 AM,7.0,1.9,80,30.25,10.0,NW,5.8,-,N/A,,Overcast,320,2013-01-01 07:53:00
2:53 AM,8.1,1.9,76,30.28,10.0,NNW,4.6,-,N/A,,Clear,330,2013-01-01 09:53:00
3:53 AM,7.0,1.9,80,30.30,10.0,NW,4.6,-,N/A,,Partly Cloudy,320,2013-01-01 10:53:00
4:53 AM,10.9,7.0,84,30.30,6.0,WNW,8.1,-,0.00,Snow,Light Snow,290,2013-01-01 11:53:00
5:29 AM,12.2,6.8,79,30.08,10.0,NW,11.5,-,0.00,,Mostly Cloudy,310,2013-01-01 12:29:00
5:53 AM,12.0,8.1,84,30.30,10.0,WNW,8.1,-,0.00,,Partly Cloudy,300,2013-01-01 12:53:00
6:53 AM,14.0,9.0,80,30.32,10.0,NW,6.9,-,N/A,,Mostly Cloudy,310,2013-01-01 13:53:00
7:53 AM,15.1,9.0,77,30.32,10.0,NNW,3.5,-,N/A,,Overcast,340,2013-01-01 14:53:00
8:53 AM,18.0,10.0,71,30.33,10.0,NW,11.5,-,N/A,,Overcast,310,2013-01-01 15:53:00
9:53 AM,19.9,10.9,68,30.34,10.0,NW,10.4,-,N/A,,Clear,310,2013-01-01 16:53:00
10:53 AM,24.1,12.0,60,30.30,10.0,WNW,16.1,-,N/A,,Clear,300,2013-01-01 17:53:00
11:53 AM,27.0,12.9,56,30.25,10.0,West,13.8,-,N/A,,Clear,280,2013-01-01 18:53:00
12:53 PM,28.0,14.0,56,30.21,10.0,WNW,25.3,28.8,N/A,,Clear,290,2013-01-01 19:53:00
1:53 PM,28.9,14.0,54,30.19,10.0,WNW,18.4,-,N/A,,Clear,290,2013-01-01 20:53:00
2:53 PM,28.9,14.0,54,30.18,10.0,WNW,20.7,-,N/A,,Clear,290,2013-01-01 21:53:00
3:53 PM,27.0,12.9,56,30.21,10.0,WNW,15.0,-,N/A,,Clear,300,2013-01-01 22:53:00
4:53 PM,23.0,10.9,60,30.22,10.0,NW,10.4,-,N/A,,Partly Cloudy,310,2013-01-01 23:53:00
5:53 PM,24.1,12.0,60,30.22,10.0,NW,10.4,-,N/A,,Overcast,310,2013-01-02 00:53:00
6:53 PM,24.1,12.0,60,30.23,10.0,NW,15.0,-,N/A,,Overcast,320,2013-01-02 01:53:00
7:53 PM,24.1,14.0,65,30.24,9.0,WNW,24.2,-,N/A,,Overcast,300,2013-01-02 02:53:00
8:01 PM,23.0,15.8,74,30.08,2.5,WNW,23.0,29.9,0.00,Snow,Light Snow,300,2013-01-02 03:01:00
8:10 PM,21.2,17.6,86,30.09,1.2,WNW,18.4,-,0.00,Snow,Light Snow,300,2013-01-02 03:10:00
8:53 PM,21.9,19.0,89,30.27,2.0,WNW,20.7,24.2,0.00,Snow,Light Snow,300,2013-01-02 03:53:00
9:06 PM,21.2,19.4,93,30.11,1.2,NW,19.6,-,0.00,Snow,Light Snow,310,2013-01-02 04:06:00
9:18 PM,23.0,17.6,80,30.11,2.5,WNW,18.4,-,0.00,Snow,Light Snow,290,2013-01-02 04:18:00
9:28 PM,21.2,17.6,86,30.11,4.0,WNW,19.6,-,0.00,Snow,Light Snow,300,2013-01-02 04:28:00
11:24 PM,23.0,19.4,86,30.13,2.5,WNW,20.7,-,N/A,Snow,Light Snow,300,2013-01-02 06:24:00
11:53 PM,23.0,18.0,81,30.27,3.0,NW,15.0,-,N/A,Snow,Light Snow,320,2013-01-02 06:53:00